STARLINK R (44250 NORAD) Tracking and Keplerian Element Data

This shows tracking and keplerian element data for the satellite.

Feedback or suggestion? Click here.




ElementValue
Catalog44250
NameSTARLINK R
Epoch Orbit371
Epoch Day173.92620757
Epoch Year2019
RAAN38.2099
Inclination53.0021
Eccentricity0.0002065
Argument of Perigee107.6939
Mean Anonmoly252.4274
Mean Motion15.0544666
Decay Rate1.321E-05
L11 44250U 19029R 19173.92620757 .00001321 00000-0 11021-3 0 9990
L22 44250 53.0021 38.2099 0002065 107.6939 252.4274 15.05446660 3711

Live tracking and technical data element details for STARLINK R (NORAD 44250). STARLINK R can be tracked NOW for your location showing map with azimuth and elevation plus other details from your city location.

Track the satellite on the map from your city or location and see movement details for azimuth, elevation, latitude, longitude, range, height, and movement on the map or in text.







IsCatalogInMostPopularTable: catalog: 44250, numindb: 32
Update: records affected: 1



GetName: 44250 STARLINK R

Hit Count: updated at: Mon, 22 Jul 2019 17:14:51 GMT